Find Meteor-2

NORAD ID: 22782 Int'l Des: 1993-055 Owner: VKS/RGMS Country: RU operational
LEOCIRCULARPOLAR

リアルタイム位置

3D地球を読み込み中...

Meteor-2について

説明を読み込み中...

次回通過

Passes for default location (London). Set your location on the main map for personalized predictions.

高度履歴

Loading altitude history...

軌道要素

1 22782U 93055A 26106.89780698 .00000106 00000-0 81442-4 0 9993
2 22782 82.5512 343.4213 0022876 23.7631 346.9355 13.84024076647572
Epoch: Apr 16, 2026 • Age: 9 hours

現在のステータス

高度 938.1 km
速度 7.39 km/s
衛星直下点 35.70°N, 47.93°E
打ち上げ日 Aug 31, 1993
運用期間 32.6 years
タイプ other

技術仕様

分類 Payload
質量 1500.00 kg
乾燥質量 1500.00 kg
総質量 1500.00 kg
長さ 4.50 m
直径 1.40 m
スパン 4.50 m
形状 Cyl + 2 Pan
製造者 VNIEMR
バスタイプ Meteor-2
フェーズステータス In Orbit
所有者/国 VKS/RGMS/RU

Most Searched